Wind_Speed
23 23 27 27 25 20 19 23 23 22 21 22 23 25 26 27 26 22 23 26 25 17
24 27 28 30 28 27 21 17 17 19 20 19 20 21 23 24 25 23 20 20 20 19
18 21 28 30 29 29 30 23 19 17 17 17 18 19 20 21 21 21 20 18 17 16
18 16 16 21 25 28 29 32 28 21 19 18 19 19 19 18 19 18 19 18 17 16
17 19 15 19 24 28 27 27 28 29 27 24 24 23 22 22 20 21 22 22 21 19
12 16 20 23 22 21 22 24 26 27 25 25 25 24 23 21 23 23 22 22 22 20
10 14 18 22 23 22 22 23 24 23 25 25 24 22 20 21 22 21 19 19 19 18
8 9 12 15 22 25 20 20 21 21 21 22 21 21 21 20 20 20 21 19 17 16
9 10 10 12 14 17 21 27 21 21 19 19 20 20 18 17 19 22 20 20 17 16
11 12 10 9 10 12 13 15 17 17 16 16 19 18 17 19 18 16 16 15 15 14
15 15 13 12 12 9 9 10 10 10 10 10 10 10 11 12 13 13 11 12 12 14
14 14 13 13 12 11 12 11 11 10 11 11 9 8 9 10 9 9 10 10 10 9
13 13 14 13 14 14 15 16 16 15 13 13 15 12 11 11 13 14 13 11 10 8
13 13 12 14 14 15 17 19 19 20 18 18 17 15 14 12 14 14 14 13 13 11
Wind_Direction
164 165 173 172 168 158 185 193 180 176 184 184 180 182 185 189 189 194 204 212 216 214
165 165 163 181 191 192 186 181 182 178 182 187 187 189 190 191 193 193 195 204 206 208
165 169 176 177 181 188 189 183 177 175 178 176 187 187 191 192 195 198 201 200 200 204
185 176 164 173 182 185 186 188 192 186 180 182 184 185 187 190 191 191 195 198 198 198
206 207 195 180 182 180 179 184 185 185 180 182 188 182 180 179 185 192 192 187 187 187
191 196 196 184 174 176 180 182 187 191 183 185 188 185 184 192 188 189 191 191 189 186
183 183 186 188 189 187 187 182 179 182 181 178 180 180 181 186 189 189 189 191 188 183
165 174 177 182 191 192 189 186 183 179 179 176 176 180 183 186 189 189 186 189 197 206
136 137 150 163 172 183 191 198 201 204 202 197 196 204 216 223 221 214 210 213 222 224
121 121 121 137 148 160 169 179 187 190 194 200 208 214 214 209 205 207 215 215 220 218
102 99 104 111 111 120 138 148 158 164 175 181 182 189 198 202 207 215 219 218 215 203
103 103 102 98 102 111 117 120 126 132 141 145 136 160 173 184 188 176 162 160 163 171
106 112 113 115 110 111 115 113 111 108 112 121 116 119 127 137 141 135 132 132 138 136
104 109 112 110 117 122 121 117 111 108 107 106 103 103 107 115 124 129 129 129 130 141
Height
728 729 738 745 751 753 760 763 767 769 774 779 781 786 789 794 798 804 809 814 816 818
731 738 740 744 748 754 759 762 765 767 773 777 778 784 789 794 796 801 808 811 813 816
731 734 740 742 746 750 755 759 764 765 770 772 780 784 789 793 796 799 805 809 812 813
730 734 734 735 742 747 752 756 762 767 770 775 780 783 787 789 793 797 801 805 808 811
728 730 730 736 742 746 750 756 760 764 765 770 777 778 780 784 789 795 799 801 805 809
725 726 731 736 740 743 748 753 758 762 761 767 773 774 778 783 787 792 797 799 802 804
728 731 733 735 739 744 748 753 756 760 763 766 773 776 780 785 789 791 794 799 801 803
730 730 732 735 739 745 749 752 756 761 765 767 772 776 781 785 787 790 793 796 799 800
731 733 735 738 740 743 747 751 756 759 762 765 768 774 777 780 786 788 789 791 794 797
734 734 735 739 742 744 747 749 753 756 761 763 767 771 773 777 781 784 786 788 791 794
736 737 739 741 743 747 748 751 753 756 759 762 765 768 772 775 778 781 784 786 789 792
740 741 745 746 748 751 752 755 757 759 761 763 765 768 771 775 778 780 783 786 789 793
743 746 750 750 749 754 756 759 758 762 764 766 766 770 771 774 778 782 787 788 790 793
748 750 751 749 755 758 760 761 763 766 769 770 772 774 775 778 780 787 791 792 793 797